Location: Bennemühlen
(52.5740°N, 9.7135°E)
Time: 17:04:49
(UTC+00:00)

Cosmos 2341 Rocket - Pass Details

Date: 19 May 2025
Orbit: 966 x 1004 km, 82.9° (Epoch: 17 June)

Event Time Altitude Azimuth Distance (km) Brightness Sun altitude
Rises 19:51:03 0° 351° (N) 3,701 7.9 -4.8°
Reaches altitude 10° 19:53:43 10° 358° (N) 2,743 7.1 -5.1°
Maximum altitude 19:59:44 47° 71° (ENE) 1,278 4.5 -5.7°
Drops below altitude 10° 20:05:41 10° 144° (SE) 2,707 5.7 -6.4°
Enters shadow 20:06:25 - 147° (SSE) 2,966 5.9 -6.5°
